Change the Weather History Date:

Thursday, February 27, 2014

  Actual Average Record
Temperature  
Mean Temperature 11 °F -  
Max Temperature 21 °F 35 °F 64 °F (1997)
Min Temperature 1 °F 20 °F 1 °F (2014)
Degree Days  
Heating Degree Days 54    
Moisture  
Dew Point -6 °F    
Average Humidity 51    
Maximum Humidity 73    
Minimum Humidity 31    
Precipitation  
Precipitation 0.00 in - - ()
Sea Level Pressure  
Sea Level Pressure 29.68 in    
Wind  
Wind Speed 7 mph (West)    
Max Wind Speed 24 mph    
Max Gust Speed 45 mph    
Visibility 9 miles    
Events      
Averages and records for this station are not official NWS values.
T = Trace of Precipitation, MM = Missing Value Source: NWS Daily Summary

Daily Weather History Graph

Daily Weather History Graph

Search for Another Location

Airport or City:

Trip Planner

Search our weather history database for the weather conditions in past years. The results will help you decide how hot, cold, wet, or windy it might be!

Date:

Astronomy

Feb. 27, 2014 Rise Set
Actual Time 6:37 AM EST 5:47 PM EST
Civil Twilight 6:09 AM EST 6:15 PM EST
Nautical Twilight 5:37 AM EST 6:47 PM EST
Astronomical Twilight 5:04 AM EST 7:19 PM EST
Moon 5:08 AM EST (2/27) 4:09 PM EST (2/27)
Length of Visible Light 12h 06m
Length of Day
11h 10m
Waning Crescent, 4% of the Moon is Illuminated
Feb 27
Waning Crescent
Mar 1
New
Mar 8
First Quarter
Mar 16
Full
Mar 23
Last Quarter

Hourly Weather History & Observations

Time (EST) Temp. Windchill Dew Point Humidity Pressure Visibility Wind Dir Wind Speed Gust Speed Precip Events Conditions
12:15 AM 1.4 °F - -9.4 °F 61% 29.77 in 10.0 mi Calm Calm - N/A   Clear
12:35 AM 1.4 °F - -9.4 °F 61% 29.76 in 10.0 mi Calm Calm - N/A   Clear
12:55 AM 1.4 °F - -9.4 °F 61% 29.76 in 10.0 mi Calm Calm - N/A   Clear
1:15 AM 1.4 °F - -7.6 °F 66% 29.75 in 10.0 mi Calm Calm - N/A   Clear
1:35 AM 3.2 °F - -7.6 °F 61% 29.75 in 10.0 mi Calm Calm - N/A   Clear
1:55 AM 1.4 °F - -9.4 °F 61% 29.73 in 10.0 mi Calm Calm - N/A   Clear
2:15 AM 1.4 °F - -9.4 °F 61% 29.72 in 10.0 mi Calm Calm - N/A   Clear
2:35 AM 1.4 °F -8.3 °F -9.4 °F 61% 29.70 in 10.0 mi East 4.6 mph - N/A   Clear
2:55 AM 1.4 °F -8.3 °F -7.6 °F 66% 29.70 in 10.0 mi ENE 4.6 mph - N/A   Clear
3:15 AM 1.4 °F -8.3 °F -9.4 °F 61% 29.68 in 10.0 mi ENE 4.6 mph - N/A   Clear
3:35 AM 1.4 °F -6.2 °F -9.4 °F 61% 29.68 in 10.0 mi ENE 3.5 mph - N/A   Clear
3:55 AM 1.4 °F -8.3 °F -9.4 °F 61% 29.67 in 10.0 mi ENE 4.6 mph - N/A   Clear
4:15 AM 1.4 °F -9.9 °F -9.4 °F 61% 29.66 in 10.0 mi ENE 5.8 mph - N/A   Scattered Clouds
4:35 AM 1.4 °F -9.9 °F -9.4 °F 61% 29.65 in 10.0 mi East 5.8 mph - N/A   Mostly Cloudy
4:55 AM 3.2 °F -6.2 °F -9.4 °F 56% 29.64 in 10.0 mi East 4.6 mph - N/A   Scattered Clouds
5:15 AM 3.2 °F -4.2 °F -9.4 °F 56% 29.64 in 10.0 mi East 3.5 mph - N/A   Clear
5:35 AM 3.2 °F -6.2 °F -9.4 °F 56% 29.63 in 10.0 mi East 4.6 mph - N/A   Scattered Clouds
5:55 AM 3.2 °F -4.2 °F -9.4 °F 56% 29.63 in 10.0 mi East 3.5 mph - N/A   Mostly Cloudy
6:15 AM 3.2 °F -4.2 °F -9.4 °F 56% 29.61 in 10.0 mi East 3.5 mph - N/A   Overcast
6:35 AM 3.2 °F - -9.4 °F 56% 29.61 in 10.0 mi Calm Calm - N/A   Overcast
6:55 AM 3.2 °F -6.2 °F -7.6 °F 61% 29.61 in 10.0 mi SSE 4.6 mph - N/A   Mostly Cloudy
7:15 AM 6.8 °F -4.8 °F -5.8 °F 56% 29.60 in 10.0 mi SSE 6.9 mph - N/A   Clear
7:35 AM 6.8 °F -4.8 °F -7.6 °F 52% 29.59 in 10.0 mi South 6.9 mph - N/A   Scattered Clouds
7:55 AM 6.8 °F -3.5 °F -7.6 °F 52% 29.60 in 10.0 mi South 5.8 mph - N/A   Scattered Clouds
8:15 AM 8.6 °F -1.3 °F -5.8 °F 52% 29.60 in 10.0 mi South 5.8 mph - N/A   Mostly Cloudy
8:35 AM 10.4 °F 2.2 °F -5.8 °F 48% 29.59 in 10.0 mi South 4.6 mph - N/A   Scattered Clouds
8:55 AM 12.2 °F 1.7 °F -4.0 °F 48% 29.59 in 10.0 mi South 6.9 mph - N/A   Partly Cloudy
9:15 AM 14.0 °F 2.9 °F -2.2 °F 49% 29.59 in 10.0 mi SW 8.1 mph 17.3 mph N/A   Scattered Clouds
9:35 AM 15.8 °F 1.4 °F -2.2 °F 45% 29.58 in 10.0 mi SSW 13.8 mph 19.6 mph N/A   Mostly Cloudy
9:55 AM 17.6 °F 2.7 °F -0.4 °F 45% 29.57 in 9.0 mi SSW 16.1 mph 19.6 mph N/A   Mostly Cloudy
10:15 AM 17.6 °F 5.0 °F 1.4 °F 49% 29.55 in 10.0 mi SSW 11.5 mph 23.0 mph N/A   Partly Cloudy
10:35 AM 19.4 °F 7.9 °F 1.4 °F 46% 29.55 in 10.0 mi SW 10.4 mph 19.6 mph N/A   Partly Cloudy
10:55 AM 19.4 °F 6.6 °F 1.4 °F 46% 29.53 in 10.0 mi WSW 12.7 mph 19.6 mph N/A   Mostly Cloudy
11:15 AM 19.4 °F 5.0 °F -0.4 °F 42% 29.53 in 10.0 mi West 16.1 mph 28.8 mph N/A   Mostly Cloudy
11:35 AM 19.4 °F 5.5 °F -0.4 °F 42% 29.54 in 10.0 mi WSW 15.0 mph 25.3 mph N/A   Mostly Cloudy
11:55 AM 19.4 °F 5.0 °F 1.4 °F 46% 29.53 in 10.0 mi West 16.1 mph 27.6 mph N/A   Mostly Cloudy
12:15 PM 19.4 °F 4.5 °F 1.4 °F 46% 29.54 in 7.0 mi West 17.3 mph 27.6 mph N/A   Mostly Cloudy
12:35 PM 17.6 °F 4.3 °F 3.2 °F 53% 29.54 in 6.0 mi West 12.7 mph 24.2 mph N/A   Mostly Cloudy
12:55 PM 21.2 °F 8.3 °F 5.0 °F 50% 29.53 in 10.0 mi WSW 13.8 mph 20.7 mph N/A   Mostly Cloudy
1:15 PM 19.4 °F 6.6 °F -0.4 °F 42% 29.54 in 10.0 mi West 12.7 mph 24.2 mph N/A   Mostly Cloudy
1:35 PM 19.4 °F 5.0 °F -0.4 °F 42% 29.55 in 10.0 mi West 16.1 mph 27.6 mph N/A   Mostly Cloudy
1:55 PM 19.4 °F 5.5 °F 6.8 °F 58% 29.55 in 10.0 mi West 15.0 mph 20.7 mph N/A   Mostly Cloudy
2:15 PM 19.4 °F 7.2 °F 1.4 °F 46% 29.55 in 10.0 mi West 11.5 mph 19.6 mph N/A   Mostly Cloudy
2:35 PM 19.4 °F 9.5 °F 5.0 °F 54% 29.56 in 9.0 mi West 8.1 mph 17.3 mph N/A   Scattered Clouds
2:55 PM 19.4 °F 7.2 °F 6.8 °F 58% 29.56 in 5.0 mi West 11.5 mph 16.1 mph N/A   Mostly Cloudy
3:15 PM 17.6 °F 7.3 °F 8.6 °F 68% 29.57 in 2.5 mi West 8.1 mph - N/A   Mostly Cloudy
3:35 PM 19.4 °F 11.5 °F 5.0 °F 54% 29.56 in 10.0 mi West 5.8 mph - N/A   Scattered Clouds
3:55 PM 19.4 °F 8.6 °F 6.8 °F 58% 29.57 in 10.0 mi West 9.2 mph - N/A   Mostly Cloudy
4:15 PM 19.4 °F 2.8 °F 1.4 °F 46% 29.59 in 2.5 mi WNW 21.9 mph 31.1 mph N/A   Mostly Cloudy
4:35 PM 17.6 °F 4.3 °F 10.4 °F 73% 29.61 in 0.5 mi West 12.7 mph 25.3 mph N/A   Overcast
4:55 PM 17.6 °F 3.7 °F 8.6 °F 68% 29.61 in 7.0 mi West 13.8 mph 21.9 mph N/A   Scattered Clouds
5:15 PM 15.8 °F -2.3 °F 5.0 °F 62% 29.64 in 0.2 mi WNW 23.0 mph 44.9 mph N/A   Overcast
5:35 PM 15.8 °F -1.1 °F 6.8 °F 68% 29.67 in 6.0 mi West 19.6 mph 31.1 mph N/A   Mostly Cloudy
5:55 PM 12.2 °F -7.1 °F -5.8 °F 45% 29.69 in 1.0 mi WNW 23.0 mph 33.4 mph N/A   Mostly Cloudy
6:15 PM 12.2 °F -7.5 °F -9.4 °F 38% 29.72 in 9.0 mi WNW 24.2 mph 34.5 mph N/A   Clear
6:35 PM 10.4 °F -9.5 °F -11.2 °F 37% 29.75 in 10.0 mi WNW 23.0 mph 29.9 mph N/A   Clear
6:55 PM 10.4 °F -8.2 °F -11.2 °F 37% 29.77 in 10.0 mi WNW 19.6 mph 27.6 mph N/A   Clear
7:15 PM 10.4 °F -9.9 °F -14.8 °F 31% 29.77 in 10.0 mi WNW 24.2 mph 32.2 mph N/A   Clear
7:35 PM 8.6 °F -9.5 °F -14.8 °F 34% 29.80 in 10.0 mi West 17.3 mph 25.3 mph N/A   Scattered Clouds
7:55 PM 8.6 °F -11.4 °F -14.8 °F 34% 29.81 in 8.0 mi WNW 21.9 mph 35.7 mph N/A   Scattered Clouds
8:15 PM 6.8 °F -12.4 °F -14.8 °F 37% 29.83 in 9.0 mi WNW 18.4 mph 33.4 mph N/A   Partly Cloudy
8:35 PM 6.8 °F -12.4 °F -14.8 °F 37% 29.86 in 10.0 mi WNW 18.4 mph 26.5 mph N/A   Clear
8:55 PM 6.8 °F -11.8 °F -14.8 °F 37% 29.88 in 10.0 mi NW 17.3 mph 26.5 mph N/A   Clear
9:15 PM 5.0 °F -14.2 °F -14.8 °F 40% 29.89 in 10.0 mi West 17.3 mph 27.6 mph N/A   Clear
9:35 PM 3.2 °F -17.6 °F -14.8 °F 43% 29.90 in 10.0 mi WNW 19.6 mph 32.2 mph N/A   Clear
9:55 PM 3.2 °F -16.5 °F -16.6 °F 39% 29.91 in 10.0 mi WNW 17.3 mph 27.6 mph N/A   Clear
10:15 PM 3.2 °F -11.3 °F -14.8 °F 43% 29.92 in 10.0 mi WNW 9.2 mph 19.6 mph N/A   Clear
10:35 PM 3.2 °F -14.6 °F -14.8 °F 43% 29.93 in 10.0 mi WNW 13.8 mph 19.6 mph N/A   Clear
10:55 PM 3.2 °F -15.3 °F -14.8 °F 43% 29.93 in 10.0 mi WNW 15.0 mph 21.9 mph N/A   Clear
11:15 PM 1.4 °F -16.1 °F -14.8 °F 47% 29.94 in 10.0 mi WNW 12.7 mph 24.2 mph N/A   Clear
11:35 PM 1.4 °F -16.1 °F -14.8 °F 47% 29.95 in 10.0 mi WNW 12.7 mph 18.4 mph N/A   Clear
11:55 PM 1.4 °F -17.6 °F -14.8 °F 47% 29.96 in 10.0 mi West 15.0 mph 23.0 mph N/A   Clear